Tomás Bergallo se llevó la victoria en la Final de la Clase 2 del Turismo Nacional, que se llevó a cabo en el Autódromo Roberto Mouras de La Plata. El piloto de Sáenz Peña dio cuenta de Nicolás Posco en el tramo inicial de la competencia y luego edificó una ventaja tranquilizadora para consumar su éxito en la divisional menor, al mando del Toyota Etios del JCB Motorsport.

En el trazado platense, el segundo lugar lo ocupó el propio líder del campeonato Posco; mientras que Maximiliano Bestani culminó en la tercera colocación para obtener su primer podio en la categoría.

Por su parte, los diez primeros puestos los completaron Christian Abdala, Gerónimo Núñez, Emanuel Abdala, Sebastián Pérez, Gastón Iansa, Luciano González y Miguel Ciaurro.

Así las cosas, Posco lidera el campeonato con 128 unidades, superando por 14 puntos a Gerónimo Núñez (114) y por 31 unidades a Emanuel Abdala (97). Los cinco primeros puestos del certamen los completan Iansa (94) y Bergallo (74).

    Final TN Clase 2 – La Plata    

Pos. Piloto Marca Vtas. Tiempo Dif.
1 144 TOMÁS BERGALLO TOYOTA ETIOS 12 22:03.538
2 3 NICOLÁS POSCO FIESTA KINETIC 12 22:07.075 3.537
3 11 MAXIMILIANO BESTANI FIESTA KINETIC 12 22:08.021 4.483
4 29 CHRISTIAN ABDALA TOYOTA ETIOS 12 22:08.568 5.030
5 6 GERONIMO NUÑEZ TOYOTA ETIOS 12 22:09.067 5.529
6 95 EMANUEL ABDALA TOYOTA ETIOS 12 22:10.620 7.082
7 4 SEBASTIAN PEREZ CHEVROLET ONIX 12 22:11.033 7.495
8 5 GASTON IANSA FIESTA KINETIC 12 22:12.047 8.509
9 41 LUCIANO GONZALEZ FIESTA KINETIC 12 22:12.357 8.819
10 12 MIGUEL CIAURRO VW TREND 12 22:23.938 20.400
11 31 IGNACIO PROCACITTO VW TREND 12 22:24.399 20.861
12 14 FACUNDO LEANEZ TOYOTA ETIOS 12 22:25.026 21.488
13 159 AGUSTIN BONOMO DS3 12 22:26.356 22.818
14 19 FERNANDO GOMEZ FREDES NISSAN MARCH 12 22:27.434 23.896
15 123 FABRICIO BENITEZ TOYOTA ETIOS 12 22:32.166 28.628
16 72 LUCAS TEDESCHI TOYOTA ETIOS 12 22:37.469 33.931
17 75 JOSÉ LUIS ARRATE RENAULT CLIO 12 22:57.255 53.717
18 62 CHRISTIAN BODRATO MIONETTO FIAT PALIO 12 23:02.877 59.339
19 152 THIAGO MARTINEZ RENAULT CLIO 12 23:05.369 1:01.831
20 84 LUCAS YEROBI RENAULT CLIO 12 23:06.584 1:03.046
21 8 JOEL BORGOBELLO VW TREND 12 23:15.864 1:12.326
22 22 DIEGO LEANEZ TOYOTA ETIOS 12 23:16.132 1:12.594
23 120 MATEO NUÑEZ NISSAN MARCH 12 23:17.660 1:14.122
24 30 VALDERREY ALEJANDRO FIAT ARGO 12 23:19.367 1:15.829
25 100 MAURO SALVI TOYOTA ETIOS 12 23:19.641 1:16.103
26 116 ALEJANDRO TORRISI NISSAN MARCH 12 23:19.846 1:16.308
27 127 JOSE BAILONE RENAULT CLIO 12 23:29.827 1:26.289
28 18 GABRIEL SCORDIA FIAT ARGO 12 23:34.249 1:30.711
29 64 MIGUEL ARGAÑARAZ RENAULT CLIO 12 23:41.313 1:37.775
30 44 SANDRO ABDALA RENAULT CLIO 9 17:21.056 3 Vueltas
 31 10 ALEJO BORGIANI VW TREND 8 15:38.118 4 Vueltas
 32 26 DAMIAN KIRSTEIN PEUGEOT 208 6 12:44.746 6 Vueltas
 33 87 YAMIL APUD RENAULT CLIO 1 1:53.552 11 Vueltas

 

NO LARGÓ: RENZO TESTA

S.B

Compartir